Weather History for Roswell, NM

Change the Weather History Date:

Monday, September 9, 2013

  Actual Average Record
Temperature  
Mean Temperature 75 °F 74 °F  
Max Temperature 87 °F 88 °F 101 °F (1992)
Min Temperature 62 °F 61 °F 47 °F (1953)
Degree Days  
Heating Degree Days 0 0  
Month to date heating degree days 0 0  
Since 1 July heating degree days 0 0  
Cooling Degree Days 10 9  
Month to date cooling degree days 136 95  
Year to date cooling degree days 2000 1619  
Growing Degree Days 24 (Base 50)    
Moisture  
Dew Point 59 °F    
Average Humidity 61    
Maximum Humidity 90    
Minimum Humidity 32    
Precipitation  
Precipitation 0.00 in 0.06 in 2.55 in (1980)
Month to date precipitation 0.06 0.50  
Year to date precipitation 4.66 9.43  
Sea Level Pressure  
Sea Level Pressure 29.83 in    
Wind  
Wind Speed 10 mph (SSE)    
Max Wind Speed 26 mph    
Max Gust Speed 32 mph    
Visibility 10 miles    
Events      
T = Trace of Precipitation, MM = Missing Value Source: NWS Daily Summary

Daily Weather History Graph

Daily Weather History Graph

Search for Another Location

Airport:

Trip Planner

Search our weather history database for the weather conditions in past years. The results will help you decide how hot, cold, wet, or windy it might be!

Date:

Astronomy

Sep. 09, 2013 Rise Set
Actual Time 6:37 AM MDT 7:12 PM MDT
Civil Twilight 6:12 AM MDT 7:37 PM MDT
Nautical Twilight 5:43 AM MDT 8:06 PM MDT
Astronomical Twilight 5:13 AM MDT 8:36 PM MDT
Moon 10:46 AM MDT (9/9) 9:47 PM MDT (9/9)
Length of Visible Light 13h 24m
Length of Day
12h 34m
Waxing Crescent, 19% of the Moon is Illuminated
Sep 9
Waxing Crescent
Sep 12
First Quarter
Sep 19
Full
Sep 26
Last Quarter
Oct 4
New

Hourly Weather History & Observations

Time (MDT) Temp. Heat Index Dew Point Humidity Pressure Visibility Wind Dir Wind Speed Gust Speed Precip Events Conditions
12:51 AM 70.0 °F - 59.0 °F 68% 29.79 in 10.0 mi South 5.8 mph - N/A   Clear
1:51 AM 68.0 °F - 60.1 °F 76% 29.79 in 10.0 mi SSE 4.6 mph - N/A   Clear
2:51 AM 64.9 °F - 59.0 °F 81% 29.79 in 10.0 mi South 4.6 mph - N/A   Clear
3:51 AM 64.0 °F - 60.1 °F 87% 29.80 in 10.0 mi SSW 4.6 mph - N/A   Clear
4:51 AM 64.9 °F - 59.0 °F 81% 29.83 in 10.0 mi South 3.5 mph - N/A   Clear
5:51 AM 62.1 °F - 59.0 °F 90% 29.84 in 10.0 mi Calm Calm - N/A   Clear
6:51 AM 63.0 °F - 59.0 °F 87% 29.86 in 10.0 mi SE 4.6 mph - N/A   Clear
7:51 AM 66.0 °F - 62.1 °F 87% 29.87 in 10.0 mi SSE 8.1 mph - N/A   Clear
8:10 AM 66.2 °F - 62.6 °F 88% 30.04 in 10.0 mi SSE 9.2 mph - N/A   Mostly Cloudy
8:51 AM 69.1 °F - 63.0 °F 81% 29.88 in 10.0 mi South 12.7 mph - N/A   Mostly Cloudy
9:24 AM 71.6 °F - 62.6 °F 73% 30.04 in 10.0 mi SSE 8.1 mph - N/A   Scattered Clouds
9:51 AM 73.0 °F - 63.0 °F 71% 29.87 in 10.0 mi SSE 9.2 mph - N/A   Clear
10:51 AM 75.0 °F - 63.0 °F 66% 29.87 in 10.0 mi SSE 10.4 mph - N/A   Clear
11:51 AM 79.0 °F - 62.1 °F 56% 29.86 in 10.0 mi SSE 9.2 mph - N/A   Clear
12:51 PM 81.0 °F 81.7 °F 61.0 °F 50% 29.83 in 10.0 mi SSE 13.8 mph 20.7 mph N/A   Partly Cloudy
1:51 PM 84.0 °F 83.8 °F 59.0 °F 43% 29.80 in 10.0 mi SE 17.3 mph 24.2 mph N/A   Partly Cloudy
2:51 PM 84.9 °F 84.4 °F 59.0 °F 41% 29.78 in 10.0 mi ESE 16.1 mph 28.8 mph N/A   Partly Cloudy
3:51 PM 84.9 °F 83.9 °F 57.0 °F 38% 29.75 in 10.0 mi ESE 17.3 mph 23.0 mph N/A   Clear
4:51 PM 86.0 °F 84.7 °F 55.9 °F 36% 29.73 in 10.0 mi SE 13.8 mph - N/A   Clear
5:51 PM 86.0 °F 84.2 °F 54.0 °F 33% 29.73 in 10.0 mi SSE 16.1 mph - N/A   Partly Cloudy
6:51 PM 84.0 °F 83.3 °F 57.0 °F 40% 29.74 in 10.0 mi SE 16.1 mph - N/A   Partly Cloudy
7:51 PM 79.0 °F - 60.1 °F 52% 29.78 in 10.0 mi SSE 21.9 mph 32.2 mph N/A   Clear
8:51 PM 75.9 °F - 57.9 °F 54% 29.80 in 10.0 mi South 11.5 mph - N/A   Clear
9:51 PM 73.9 °F - 59.0 °F 59% 29.82 in 10.0 mi SSE 9.2 mph - N/A   Clear
10:51 PM 73.0 °F - 57.9 °F 59% 29.83 in 10.0 mi SSE 9.2 mph - N/A   Clear
11:51 PM 72.0 °F - 57.9 °F 61% 29.82 in 10.0 mi SE 6.9 mph - N/A   Clear